Location: Newark
(39.9267°N, 1.8017°W)
Time: 20:54:39
(UTC+00:00)

Hubble Space Telescope - Visible Passes

Search period start: 23 March 2019 00:00
Search period end: 02 April 2019 00:00
Orbit: 537 x 540 km, 28.5° (Epoch: 22 March)

Date Brightness Start Highest point End Pass type
(mag) Time Alt. Az. Time Alt. Az. Time Alt. Az.
25 Mar 3.1 20:06:41 10° SSW 20:07:45 13° S 20:07:45 13° S visible
26 Mar 2.8 19:55:51 10° SSW 19:58:03 15° S 19:58:03 15° S visible
27 Mar 2.7 19:45:06 10° SSW 19:47:40 16° S 19:48:18 15° SSE visible
28 Mar 2.7 19:34:26 10° SW 19:37:04 16° S 19:38:30 14° SSE visible
29 Mar 2.8 19:23:48 10° SW 19:26:28 17° S 19:28:40 12° SE visible
30 Mar 2.8 19:13:14 10° SW 19:15:52 16° S 19:18:30 10° SE visible
31 Mar 2.9 19:02:42 10° SW 19:05:16 16° S 19:07:49 10° SSE visible
01 Apr 3.0 18:52:15 10° SW 18:54:40 15° S 18:57:04 10° SSE visible
